AFL1010 UIII-UNKL

Flight info

Callsign AFL1010
Flight time N/A
Altitude 38000
Route BOGRA5D BOGRA A815 TUTEK A91 SUKOR W176 TISBU A311 LALOM LALOM2S
Aircraft A20N/M-SDE2E3FGHIRWXY/LB1

Departure

Time 2026-04-29 14:04
Airport Irkutsk International Airport (UIII)

Arrival

Time N/A
Airport Krasnoyarsk International Airport (UNKL)
Time Latitude Longitude Altitude Speed Heading
2026-04-29 12:47 52.27071 104.36968 1629 ft 0 kts 200°
2026-04-29 13:59 52.27068 104.36967 1632 ft 2 kts 201°
2026-04-29 13:59 52.27046 104.36962 1629 ft 5 kts 171°
2026-04-29 13:59 52.27018 104.37011 1630 ft 8 kts 118°
2026-04-29 13:59 52.26996 104.37112 1632 ft 11 kts 107°
2026-04-29 14:00 52.26999 104.37253 1630 ft 14 kts 83°
2026-04-29 14:00 52.26967 104.37415 1631 ft 16 kts 112°
2026-04-29 14:00 52.26922 104.37592 1632 ft 17 kts 112°
2026-04-29 14:00 52.26873 104.37779 1634 ft 18 kts 117°
2026-04-29 14:01 52.26819 104.37975 1637 ft 19 kts 113°
2026-04-29 14:01 52.26762 104.38181 1640 ft 20 kts 113°
2026-04-29 14:01 52.26706 104.38397 1643 ft 21 kts 112°
2026-04-29 14:01 52.26647 104.38619 1646 ft 22 kts 114°
2026-04-29 14:02 52.26585 104.38847 1649 ft 22 kts 114°
2026-04-29 14:02 52.26528 104.39071 1652 ft 15 kts 110°
2026-04-29 14:02 52.26523 104.39092 1652 ft 2 kts 110°
2026-04-29 14:02 52.26517 104.39123 1652 ft 4 kts 107°
2026-04-29 14:03 52.26528 104.39161 1653 ft 5 kts 45°
2026-04-29 14:03 52.26569 104.39195 1653 ft 8 kts 24°
2026-04-29 14:03 52.26673 104.39272 1653 ft 27 kts 24°
2026-04-29 14:03 52.26764 104.39262 1651 ft 8 kts 307°
2026-04-29 14:04 52.26892 104.38782 1644 ft 92 kts 294°
2026-04-29 14:04 52.27240 104.37425 1731 ft 157 kts 292°
2026-04-29 14:04 52.27687 104.35676 2441 ft 170 kts 293°
2026-04-29 14:04 52.28146 104.33932 3641 ft 168 kts 297°
2026-04-29 14:05 52.28642 104.32106 4490 ft 185 kts 297°
2026-04-29 14:05 52.29192 104.30070 5272 ft 206 kts 297°
2026-04-29 14:05 52.29978 104.27991 6065 ft 224 kts 315°
2026-04-29 14:05 52.31329 104.26511 6753 ft 251 kts 337°
2026-04-29 14:06 52.33078 104.25464 7137 ft 285 kts 339°
2026-04-29 14:06 52.35039 104.24364 7706 ft 305 kts 340°
2026-04-29 14:06 52.37011 104.23276 9155 ft 291 kts 340°
2026-04-29 14:06 52.38859 104.22253 10718 ft 277 kts 340°
2026-04-29 14:07 52.40713 104.21214 11527 ft 290 kts 340°
2026-04-29 14:07 52.42701 104.20090 11939 ft 311 kts 340°
2026-04-29 14:07 52.44769 104.18917 12745 ft 318 kts 340°
2026-04-29 14:07 52.46878 104.17718 13570 ft 324 kts 341°
2026-04-29 14:08 52.49034 104.16492 14383 ft 330 kts 341°
2026-04-29 14:08 52.51223 104.15247 15170 ft 334 kts 341°
2026-04-29 14:08 52.53439 104.13985 15946 ft 339 kts 341°
2026-04-29 14:08 52.55679 104.12708 16711 ft 344 kts 341°
2026-04-29 14:09 52.57952 104.11410 17468 ft 348 kts 341°
2026-04-29 14:09 52.60257 104.10093 18210 ft 353 kts 341°
2026-04-29 14:09 52.62589 104.08759 18918 ft 357 kts 341°
2026-04-29 14:09 52.64945 104.07410 19608 ft 360 kts 341°
2026-04-29 14:10 52.67324 104.06046 20280 ft 363 kts 341°
2026-04-29 14:10 52.69718 104.04673 20942 ft 366 kts 341°
2026-04-29 14:10 52.72142 104.03280 21594 ft 370 kts 341°
2026-04-29 14:10 52.74586 104.01875 22250 ft 373 kts 341°
2026-04-29 14:11 52.77020 104.00473 22888 ft 377 kts 341°
2026-04-29 14:11 52.79508 103.99039 23544 ft 380 kts 340°
2026-04-29 14:11 52.82021 103.97588 24118 ft 383 kts 340°
2026-04-29 14:11 52.84548 103.96127 24651 ft 386 kts 340°
2026-04-29 14:12 52.87098 103.94652 25177 ft 389 kts 340°
2026-04-29 14:12 52.89660 103.93168 25692 ft 392 kts 340°
2026-04-29 14:12 52.92248 103.91665 26198 ft 395 kts 340°
2026-04-29 14:12 52.94850 103.90153 26690 ft 398 kts 340°
2026-04-29 14:13 52.97470 103.88628 27166 ft 401 kts 340°
2026-04-29 14:13 53.00114 103.87087 27653 ft 403 kts 340°
2026-04-29 14:13 53.02766 103.85539 28117 ft 406 kts 340°
2026-04-29 14:13 53.05444 103.83974 28567 ft 408 kts 340°
2026-04-29 14:14 53.08097 103.82421 29001 ft 411 kts 340°
2026-04-29 14:14 53.10802 103.80836 29426 ft 413 kts 340°
2026-04-29 14:14 53.13522 103.79240 29844 ft 415 kts 340°
2026-04-29 14:14 53.16211 103.77447 30257 ft 418 kts 335°
2026-04-29 14:15 53.18845 103.75359 30618 ft 420 kts 335°
2026-04-29 14:15 53.21500 103.73287 30962 ft 422 kts 335°
2026-04-29 14:15 53.24171 103.71210 31296 ft 425 kts 335°
2026-04-29 14:15 53.26852 103.69121 31680 ft 426 kts 335°
2026-04-29 14:16 53.29532 103.67025 32123 ft 425 kts 334°
2026-04-29 14:16 53.32214 103.64922 32556 ft 425 kts 334°
2026-04-29 14:16 53.34897 103.62815 32983 ft 424 kts 334°
2026-04-29 14:16 53.37564 103.60716 33398 ft 424 kts 334°
2026-04-29 14:17 53.40235 103.58611 33796 ft 424 kts 334°
2026-04-29 14:17 53.42905 103.56505 34197 ft 424 kts 333°
2026-04-29 14:17 53.45568 103.54400 34534 ft 423 kts 333°
2026-04-29 14:17 53.48153 103.52044 34833 ft 422 kts 325°
2026-04-29 14:18 53.50448 103.48982 35119 ft 422 kts 316°
2026-04-29 14:18 53.52398 103.45298 35389 ft 423 kts 307°
2026-04-29 14:18 53.53963 103.41100 35668 ft 423 kts 300°
2026-04-29 14:18 53.55411 103.36786 35942 ft 423 kts 301°
2026-04-29 14:19 53.56868 103.32485 36214 ft 424 kts 301°
2026-04-29 14:19 53.58330 103.28165 36469 ft 424 kts 301°
2026-04-29 14:19 53.59768 103.23904 36713 ft 424 kts 300°
2026-04-29 14:19 53.61225 103.19569 36959 ft 425 kts 300°
2026-04-29 14:20 53.62678 103.15234 37215 ft 425 kts 300°
2026-04-29 14:20 53.64130 103.10892 37455 ft 425 kts 300°
2026-04-29 14:20 53.65089 103.08020 37611 ft 425 kts 300°
2026-04-29 14:20 53.67030 103.02194 37922 ft 425 kts 300°
2026-04-29 14:21 53.68477 102.97845 38155 ft 425 kts 300°
2026-04-29 14:21 53.69435 102.94959 38290 ft 426 kts 300°
2026-04-29 14:21 53.72795 102.84814 38337 ft 424 kts 300°
2026-04-29 14:22 53.75183 102.77576 38340 ft 425 kts 300°
2026-04-29 14:22 53.78054 102.68849 38342 ft 425 kts 300°
2026-04-29 14:23 53.80921 102.60102 38346 ft 425 kts 300°
2026-04-29 14:23 53.83781 102.51340 38344 ft 425 kts 300°
2026-04-29 14:24 53.86640 102.42553 38354 ft 425 kts 300°
2026-04-29 14:24 53.89491 102.33758 38358 ft 426 kts 300°
2026-04-29 14:25 53.92337 102.24948 38363 ft 426 kts 300°
2026-04-29 14:25 53.95179 102.16118 38365 ft 426 kts 300°
2026-04-29 14:26 53.98015 102.07274 38374 ft 426 kts 300°
2026-04-29 14:26 54.00847 101.98410 38373 ft 426 kts 300°
2026-04-29 14:27 54.03670 101.89550 38376 ft 426 kts 300°
2026-04-29 14:28 54.07913 101.76243 38371 ft 426 kts 300°
2026-04-29 14:28 54.10731 101.67366 38375 ft 426 kts 300°
2026-04-29 14:29 54.13541 101.58472 38371 ft 426 kts 300°
2026-04-29 14:29 54.16325 101.49627 38369 ft 426 kts 300°
2026-04-29 14:30 54.19119 101.40715 38376 ft 425 kts 300°
2026-04-29 14:30 54.21903 101.31806 38377 ft 425 kts 300°
2026-04-29 14:31 54.24680 101.22882 38372 ft 425 kts 300°
2026-04-29 14:31 54.27448 101.13955 38367 ft 425 kts 300°
2026-04-29 14:32 54.30209 101.05021 38366 ft 424 kts 300°
2026-04-29 14:32 54.32962 100.96076 38362 ft 424 kts 300°
2026-04-29 14:33 54.35690 100.87181 38360 ft 424 kts 300°
2026-04-29 14:33 54.38427 100.78220 38360 ft 424 kts 300°
2026-04-29 14:34 54.41159 100.69245 38359 ft 424 kts 300°
2026-04-29 14:34 54.43888 100.60246 38361 ft 424 kts 300°
2026-04-29 14:35 54.46605 100.51250 38361 ft 424 kts 299°
2026-04-29 14:35 54.49321 100.42227 38363 ft 424 kts 299°
2026-04-29 14:36 54.52010 100.33256 38362 ft 424 kts 299°
2026-04-29 14:36 54.54715 100.24198 38367 ft 425 kts 299°
2026-04-29 14:37 54.57410 100.15141 38369 ft 425 kts 299°
2026-04-29 14:37 54.60101 100.06059 38367 ft 425 kts 299°
2026-04-29 14:38 54.62787 99.96963 38366 ft 425 kts 299°
2026-04-29 14:38 54.65467 99.87850 38376 ft 426 kts 299°
2026-04-29 14:39 54.68124 99.78778 38365 ft 426 kts 298°
2026-04-29 14:39 54.70793 99.69633 38377 ft 426 kts 298°
2026-04-29 14:40 54.73457 99.60468 38376 ft 427 kts 298°
2026-04-29 14:40 54.76122 99.51265 38378 ft 427 kts 298°
2026-04-29 14:41 54.78777 99.42058 38377 ft 427 kts 298°
2026-04-29 14:41 54.81427 99.32836 38382 ft 427 kts 298°
2026-04-29 14:42 54.84048 99.23674 38385 ft 427 kts 298°
2026-04-29 14:42 54.86684 99.14429 38382 ft 427 kts 298°
2026-04-29 14:43 54.89226 99.05104 38388 ft 427 kts 295°
2026-04-29 14:43 54.91317 98.95412 38385 ft 428 kts 293°
2026-04-29 14:44 54.93407 98.85802 38386 ft 427 kts 293°
2026-04-29 14:44 54.95492 98.76121 38383 ft 427 kts 293°
2026-04-29 14:45 54.97559 98.66440 38385 ft 427 kts 293°
2026-04-29 14:45 54.99616 98.56746 38387 ft 426 kts 293°
2026-04-29 14:46 55.01662 98.47060 38388 ft 426 kts 293°
2026-04-29 14:46 55.03700 98.37369 38388 ft 425 kts 293°
2026-04-29 14:47 55.05729 98.27673 38390 ft 425 kts 293°
2026-04-29 14:47 55.07749 98.17971 38394 ft 425 kts 292°
2026-04-29 14:48 55.09761 98.08260 38395 ft 425 kts 292°
2026-04-29 14:48 55.11752 97.98607 38395 ft 425 kts 292°
2026-04-29 14:49 55.13749 97.88875 38400 ft 425 kts 292°
2026-04-29 14:49 55.15737 97.79142 38400 ft 425 kts 292°
2026-04-29 14:50 55.17714 97.69413 38389 ft 425 kts 292°
2026-04-29 14:50 55.19688 97.59652 38390 ft 424 kts 292°
2026-04-29 14:51 55.21640 97.49953 38396 ft 424 kts 292°